Location: Jaworzyna Śląska
(50.9128°N, 16.4318°E)
Time: 21:23:20
(UTC+02:00)

ISS - Pass Details

Date: 31 January 2019
Orbit: 411 x 421 km, 51.6° (Epoch: 16 October)

Event Time Altitude Azimuth Distance (km) Brightness Sun altitude
Rises 19:41:42 0° 284° (WNW) 2,379 1.3 -28.1°
Reaches altitude 10° 19:43:48 10° 282° (WNW) 1,513 0.0 -28.4°
Enters shadow 19:44:56 20° 279° (W) 1,062 -1.0 -28.6°
